Location: Karcze
(52.0945°N, 22.4786°E)
Time: 07:44:43
(UTC+00:00)

Transit 2A Rocket - Pass Details

Date: 04 August 2021
Orbit: 586 x 917 km, 66.7° (Epoch: 24 September)

Event Time Altitude Azimuth Distance (km) Brightness Sun altitude
Rises 18:38:35 0° 320° (NW) 3,182 10.1 -3.9°
Reaches altitude 10° 18:41:03 10° 329° (NNW) 2,311 8.8 -4.2°
Maximum altitude 18:46:01 38° 37° (NE) 1,232 6.1 -4.8°
Drops below altitude 10° 18:51:22 10° 105° (ESE) 2,498 7.1 -5.5°
Enters shadow 18:52:37 - 109° (ESE) 2,935 7.4 -5.7°
Sets 18:54:07 0° 113° (ESE) 3,473 - -5.8°
